Date String (YYYY-MM-DD hh:mm:ss) UTC,Instrument flags,Ambient pressure (hPa),Sample flow (lpm),Bypass flow (lpm),Sample temperature (°C),Ambient temperature (°C),ASC tube jacket temperature (°C),LED temperature (°C),Box temperature (°C),Sample RH (%),Span deviation,Mass concentration (μg/m³),Mass concentration (μg/m³),Mass concentration (μg/m³)
DateTimeUTC,F1_M11,P_M11,Q1_M11,Q2_M11,T1_M11,T2_M11,T3_M11,T4_M11,T5_M11,U1_M11,ZSPAN_M11,X0_M11,X2_M11,X1_M11
2022-11-24 17:00:00,,0836.7,5.00,0.00,21.5,20.0,00.0,30.6,23.3,16.3,0000.0,0004.11,0002.30,0002.14
2022-11-24 17:01:00,,0836.7,5.00,0.00,21.5,19.9,00.0,30.6,23.3,16.1,0000.0,0004.11,0002.29,0002.12
2022-11-24 17:02:00,,0836.7,5.00,0.00,21.5,19.9,00.0,30.6,23.3,16.0,0000.0,0004.17,0002.28,0002.10
2022-11-24 17:03:00,,0836.7,5.00,0.00,21.5,19.8,00.0,30.5,23.2,16.0,0000.0,0004.20,0002.28,0002.10
2022-11-24 17:04:00,,0836.7,5.00,0.00,21.5,19.9,00.0,30.5,23.2,15.8,0000.0,0004.24,0002.29,0002.10
2022-11-24 17:05:00,,0836.7,4.99,0.00,21.5,19.8,00.0,30.5,23.2,15.6,0000.0,0004.57,0002.30,0002.08
2022-11-24 17:06:00,,0836.7,4.99,0.00,21.5,19.8,00.0,30.5,23.2,15.9,0000.0,0004.81,0002.28,0002.06
2022-11-24 17:07:00,,0836.7,5.00,0.00,21.4,19.8,00.0,30.5,23.2,16.3,0000.0,0004.78,0002.25,0002.04
2022-11-24 17:08:00,,0836.7,5.00,0.00,21.4,19.8,00.0,30.5,23.1,16.1,0000.0,0004.67,0002.20,0002.01
2022-11-24 17:09:00,,0836.8,5.00,0.00,21.4,19.8,00.0,30.5,23.1,15.7,0000.0,0004.76,0002.17,0001.99
2022-11-24 17:10:00,,0836.8,5.00,0.00,21.3,19.7,00.0,30.4,23.0,15.5,0000.0,0004.44,0002.15,0001.98
2022-11-24 17:11:00,,0836.7,5.00,0.00,21.3,19.7,00.0,30.4,23.1,15.7,0000.0,0003.84,0002.12,0001.97
2022-11-24 17:12:00,,0836.7,5.00,0.00,21.3,19.8,00.0,30.4,23.1,16.1,0000.0,0003.84,0002.12,0001.97
2022-11-24 17:13:00,,0836.7,5.00,0.00,21.3,19.8,00.0,30.4,23.1,15.8,0000.0,0003.77,0002.11,0001.98
2022-11-24 17:14:00,,0836.7,5.00,0.00,21.3,19.8,00.0,30.4,23.1,15.8,0000.0,0003.96,0002.14,0001.99
2022-11-24 17:15:00,,0836.7,5.00,0.00,21.3,19.8,00.0,30.4,23.0,15.9,0000.0,0004.26,0002.19,0002.03
2022-11-24 17:16:00,,0836.6,5.00,0.00,21.3,19.8,00.0,30.4,23.0,16.3,0000.0,0003.97,0002.20,0002.07
2022-11-24 17:17:00,,0836.6,5.00,0.00,21.3,19.8,00.0,30.4,23.0,16.1,0000.0,0003.70,0002.23,0002.10
2022-11-24 17:18:00,,0836.6,5.00,0.00,21.3,19.8,00.0,30.3,23.0,16.3,0000.0,0003.79,0002.29,0002.14
2022-11-24 17:19:00,,0836.6,5.00,0.00,21.3,19.8,00.0,30.3,23.1,16.2,0000.0,0003.82,0002.32,0002.17
2022-11-24 17:20:00,,0836.6,5.00,0.00,21.3,19.8,00.0,30.3,23.1,15.4,0000.0,0003.74,0002.33,0002.16
2022-11-24 17:21:00,,0836.6,5.00,0.00,21.3,19.8,00.0,30.3,23.1,15.2,0000.0,0003.20,0002.32,0002.17
2022-11-24 17:22:00,,0836.6,4.99,0.00,21.3,19.8,00.0,30.3,23.0,15.1,0000.0,0003.10,0002.32,0002.17
2022-11-24 17:23:00,,0836.6,5.00,0.00,21.3,19.9,00.0,30.3,23.0,15.2,0000.0,0003.15,0002.32,0002.16
2022-11-24 17:24:00,,0836.6,5.00,0.00,21.3,19.9,00.0,30.3,23.0,15.3,0000.0,0003.18,0002.30,0002.14
2022-11-24 17:25:00,,0836.6,5.00,0.00,21.3,19.8,00.0,30.3,23.0,15.2,0000.0,0003.12,0002.29,0002.12
2022-11-24 17:26:00,,0836.6,5.00,0.00,21.2,19.8,00.0,30.3,23.0,15.0,0000.0,0003.23,0002.21,0002.07
2022-11-24 17:27:00,,0836.6,5.00,0.00,21.2,19.9,00.0,30.3,23.0,15.4,0000.0,0003.52,0002.17,0002.02
2022-11-24 17:28:00,,0836.6,5.00,0.00,21.2,19.9,00.0,30.3,23.1,15.2,0000.0,0003.85,0002.12,0001.98
2022-11-24 17:29:00,,0836.6,5.00,0.00,21.3,19.9,00.0,30.3,23.1,15.0,0000.0,0004.25,0002.05,0001.91
2022-11-24 17:30:00,,0836.6,4.99,0.00,21.3,20.0,00.0,30.3,23.1,15.2,0000.0,0004.17,0001.98,0001.86
2022-11-24 17:31:00,,0836.6,5.00,0.00,21.3,20.0,00.0,30.3,23.1,14.9,0000.0,0004.16,0001.96,0001.83
2022-11-24 17:32:00,,0836.6,5.00,0.00,21.3,20.1,00.0,30.3,23.1,15.4,0000.0,0004.15,0001.94,0001.81
2022-11-24 17:33:00,,0836.6,5.00,0.00,21.3,20.1,00.0,30.3,23.1,15.6,0000.0,0004.12,0001.93,0001.81
2022-11-24 17:34:00,,0836.6,5.00,0.00,21.3,20.1,00.0,30.3,23.1,14.8,0000.0,0004.17,0001.90,0001.79
2022-11-24 17:35:00,,0836.6,5.00,0.00,21.3,20.0,00.0,30.3,23.1,15.0,0000.0,0004.16,0001.87,0001.76
2022-11-24 17:36:00,,0836.6,5.00,0.00,21.3,20.0,00.0,30.3,23.1,15.3,0000.0,0004.40,0001.88,0001.76
2022-11-24 17:37:00,,0836.6,4.99,0.00,21.3,20.0,00.0,30.2,23.1,15.7,0000.0,0003.95,0001.88,0001.76
2022-11-24 17:38:00,,0836.6,5.00,0.00,21.3,20.1,00.0,30.2,23.1,15.5,0000.0,0003.53,0001.87,0001.76
2022-11-24 17:39:00,,0836.6,5.00,0.00,21.3,20.1,00.0,30.2,23.2,15.7,0000.0,0003.28,0001.88,0001.75
2022-11-24 17:40:00,,0836.6,5.00,0.00,21.3,20.2,00.0,30.2,23.2,15.7,0000.0,0002.71,0001.90,0001.75
2022-11-24 17:41:00,,0836.5,5.00,0.00,21.4,20.2,00.0,30.2,23.2,15.1,0000.0,0002.69,0001.89,0001.74
2022-11-24 17:42:00,,0836.5,5.00,0.00,21.4,20.2,00.0,30.2,23.2,15.0,0000.0,0002.71,0001.89,0001.74
2022-11-24 17:43:00,,0836.5,5.00,0.00,21.4,20.2,00.0,30.3,23.2,15.6,0000.0,0002.75,0001.90,0001.73
2022-11-24 17:44:00,,0836.5,5.00,0.00,21.4,20.2,00.0,30.3,23.2,15.4,0000.0,0002.71,0001.88,0001.71
2022-11-24 17:45:00,,0836.5,5.01,0.00,21.4,20.2,00.0,30.3,23.3,15.3,0000.0,0002.60,0001.88,0001.71
2022-11-24 17:46:00,,0836.5,5.01,0.00,21.4,20.2,00.0,30.3,23.2,14.8,0000.0,0002.50,0001.88,0001.70
2022-11-24 17:47:00,,0836.5,5.00,0.00,21.4,20.2,00.0,30.3,23.2,14.7,0000.0,0002.17,0001.82,0001.67
2022-11-24 17:48:00,,0836.5,4.99,0.00,21.4,20.1,00.0,30.3,23.2,14.8,0000.0,0002.08,0001.77,0001.63
2022-11-24 17:49:00,,0836.5,5.00,0.00,21.4,20.1,00.0,30.3,23.2,14.8,0000.0,0002.22,0001.75,0001.61
2022-11-24 17:50:00,,0836.5,5.00,0.00,21.4,20.1,00.0,30.3,23.2,15.2,0000.0,0002.77,0001.76,0001.60
2022-11-24 17:51:00,,0836.4,5.01,0.00,21.4,20.1,00.0,30.3,23.1,15.2,0000.0,0002.73,0001.73,0001.60
2022-11-24 17:52:00,,0836.4,5.01,0.00,21.3,20.0,00.0,30.3,23.1,15.3,0000.0,0002.73,0001.74,0001.61
2022-11-24 17:53:00,,0836.4,5.01,0.00,21.3,20.0,00.0,30.3,23.1,15.4,0000.0,0002.70,0001.73,0001.61
2022-11-24 17:54:00,,0836.4,5.00,0.00,21.3,20.1,00.0,30.3,23.2,15.2,0000.0,0002.71,0001.73,0001.61
2022-11-24 17:55:00,,0836.4,5.00,0.00,21.4,20.1,00.0,30.3,23.2,15.1,0000.0,0002.80,0001.76,0001.62
2022-11-24 17:56:00,,0836.4,5.00,0.00,21.4,20.1,00.0,30.3,23.2,15.2,0000.0,0003.13,0001.76,0001.61
2022-11-24 17:57:00,,0836.3,5.00,0.00,21.4,20.1,00.0,30.3,23.2,15.1,0000.0,0003.17,0001.75,0001.61
2022-11-24 17:58:00,,0836.3,5.00,0.00,21.4,20.1,00.0,30.3,23.2,15.2,0000.0,0003.29,0001.75,0001.61
2022-11-24 17:59:00,,0836.2,5.00,0.00,21.4,20.2,00.0,30.3,23.2,15.4,0000.0,0003.36,0001.78,0001.62
